Startseite
Über Mich
AHP4
Galerie
Sehschlangen
Tourenbuch
Bookmarks
Elektronik
Bewertung
Geschichten
[Tagesmessung] [Jahreswerte] [Information]

Messwerte vom 22.04.2022

Die letzten Messwerte von 23:58:47 Uhr:
KategorieMesswert
Temperatur [°C]11
Luftdruck [mBar]995
Sonneneinstrahlung0
Wind [km/h]1 aus Nordost
Niederschlag [l/m²]0
rel.Luftfeucht.78.4%
CO2 [ppm]407

Diagramme
Messwerte vom 22.04.2022
Tagesaggregation
KategorieMinimumMaximumSchnittSumme
Temperatur [°C]61610.1688
Luftdruck [mBar]991997994.2646
Sonneneinstrahlung247120.2750
Wind [km/h]15
rF [%]6196.682.92
Niederschlag [l/m²]0.2575
CO2 [ppm]401571444.8
Einordnung alsVegetationstag

Messungen an benachbarten Tagen: Zur Jahresaggregation 2022
Tabelle aller Messwerte
UhrzeitTemperatur [°C]Luftdruck [mBar]SonneWind [km/h]RichtungRegen [l/m²]rF [%]CO2 [ppm]
00:01:46 8 997 0 0 SO 0 96.6 560
00:04:47 8 997 0 0 SO 0 96.6 569
00:07:47 8 997 0 2 NO 0 96.6 568
00:10:45 8 996 0 1 O 0 96.6 562
00:13:47 8 997 0 1 NO 0 96.6 544
00:16:45 8 996 0 2 N 0 96.6 539
00:19:49 8 997 0 2 NO 0 96.6 543
00:22:46 8 997 0 1 NO 0 96.6 562
00:25:46 8 996 0 1 NO 0 96.6 565
00:28:48 8 997 0 2 NO 0 96.6 565
00:31:47 8 996 0 2 O 0 96.6 568
00:34:47 8 997 0 3 N 0 96.6 569
00:37:46 8 997 0 1 O 0 96.6 569
00:40:47 8 997 0 6 NO 0 96.6 571
00:43:47 8 996 0 1 SO 0 96.6 571
00:46:46 8 996 0 2 NO 0 96.6 567
00:49:46 8 997 0 0 N 0 96.6 567
00:52:48 8 996 0 0 O 0 96.6 563
00:55:46 8 997 0 2 NO 0 96.6 557
00:58:46 8 996 0 0 NO 0 96.6 557
01:01:49 8 996 0 2 NO 0 96.6 554
01:04:44 8 996 0 1 N 0 96.6 551
01:07:46 8 996 0 4 SO 0 96.6 548
01:10:46 8 996 0 0 O 0 96.6 542
01:13:46 8 996 0 3 NO 0 96.6 541
01:16:48 8 996 0 1 O 0 96.6 536
01:19:45 8 996 0 2 N 0 96.6 531
01:22:46 8 996 0 0 SW 0 96.6 530
01:25:49 8 996 0 0 NO 0 96.6 530
01:28:49 8 996 0 0 NW 0.2575 96.6 536
01:31:45 8 997 0 1 O 0 96.6 530
01:34:47 8 997 0 0 N 0 96.6 528
01:37:46 8 996 0 0 N 0 96.6 529
01:40:48 8 996 0 0 SW 0 96.6 527
01:43:47 8 996 0 1 NW 0 96.6 531
01:46:48 8 995 0 2 NO 0 96.6 530
01:49:46 8 996 0 0 O 0 96.6 530
01:52:47 8 995 0 0 NO 0 96.6 527
01:55:48 8 996 0 3 NO 0 96.6 527
01:58:48 8 995 0 0 NW 0 96.6 521
02:01:47 8 996 0 0 SO 0 96.6 521
02:04:46 8 996 0 3 0 96.6 521
02:07:45 8 995 0 2 N 0 96.6 521
02:10:46 8 995 0 2 N 0 96.6 518
02:13:46 8 996 0 1 N 0 96.6 521
02:16:48 8 995 0 1 N 0 96.6 528
02:19:47 8 995 0 5 NW 0 96.6 530
02:22:44 8 995 0 3 N 0 96.6 530
02:25:49 8 995 0 2 N 0 96.6 515
02:28:46 8 995 0 4 NO 0 96.6 513
02:31:47 8 995 0 2 O 0 96.6 509
02:34:47 8 995 0 1 SO 0 96.6 513
02:37:47 8 996 0 0 NO 0 96.6 515
02:40:46 8 996 0 2 O 0 96.6 513
02:43:44 8 995 0 2 N 0 96.6 512
02:46:48 8 995 0 1 W 0 96.6 506
02:49:46 8 995 0 2 0 96.6 507
02:52:50 8 995 0 0 NW 0 96.6 512
02:55:47 8 995 0 4 N 0 96.6 510
02:58:46 8 995 0 1 NO 0 96.6 511
03:01:47 8 995 0 1 NO 0 96.6 510
03:04:46 8 995 0 2 NO 0 96.6 510
03:07:48 8 995 0 2 NO 0 96.6 503
03:10:47 8 995 0 3 O 0 96.6 498
03:13:46 8 995 0 3 N 0 96.6 498
03:16:47 8 995 0 3 N 0 96.6 496
03:19:48 8 995 0 4 NW 0 96.6 498
03:22:46 8 995 0 1 O 0 96.6 500
03:25:47 8 995 0 3 N 0 96.6 498
03:28:46 8 995 0 4 NO 0 96.6 492
03:31:45 8 995 0 1 O 0 96.6 486
03:34:47 8 995 0 2 O 0 96.6 483
03:37:46 8 995 0 3 N 0 96.6 489
03:40:47 8 995 0 2 SO 0 96.6 492
03:43:47 8 995 0 2 NO 0 96.6 492
03:46:48 8 995 0 4 NO 0 96.6 492
03:49:45 8 995 0 2 O 0 96.6 492
03:52:46 8 995 0 1 O 0 96.6 486
03:55:46 8 995 0 3 N 0 96.6 480
03:58:46 8 995 0 3 NO 0 96.6 481
04:01:48 8 995 0 7 NW 0 96.5 478
04:04:44 8 995 0 5 N 0 96.1 480
04:07:45 7 995 0 2 O 0 96.1 478
04:10:44 7 995 0 1 N 0 96.5 483
04:13:48 7 995 0 1 O 0 96.4 477
04:16:44 7 995 0 3 O 0 96.5 474
04:19:44 7 995 0 2 N 0 96.3 480
04:22:46 7 995 0 3 NO 0 96.3 480
04:25:47 7 995 0 4 NO 0 96 486
04:28:46 7 995 0 6 N 0 95.3 492
04:31:47 7 995 0 6 NO 0 94.5 492
04:34:44 7 995 0 4 N 0 94.3 480
04:37:50 7 995 0 3 NO 0 93.7 480
04:40:45 7 995 0 4 SW 0 93.7 474
04:43:48 7 995 0 4 NO 0 94 474
04:46:47 7 995 0 3 NO 0 93.7 478
04:49:48 7 995 0 4 NW 0 93.3 468
04:52:44 7 995 0 4 NO 0 93.1 471
04:55:45 7 995 0 2 O 0 93.2 474
04:58:47 7 995 0 4 NO 0 92.9 477
05:01:46 7 995 0 6 N 0 92.8 477
05:04:46 7 995 0 3 N 0 92.6 471
05:07:47 7 995 0 0 N 0 92.8 465
05:10:49 7 995 0 2 NW 0 92.9 456
05:13:46 7 995 0 3 O 0 93 463
05:16:45 7 995 0 2 O 0 93.3 463
05:19:47 6 995 0 1 SO 0 93.2 460
05:22:46 6 995 0 2 NO 0 92.9 460
05:25:46 6 995 0 4 NO 0 92.8 456
05:28:44 6 995 0 3 0 92.7 459
05:31:48 6 995 0 2 N 0 92.6 460
05:34:45 6 995 0 4 O 0 92.6 463
05:37:45 6 995 0 7 N 0 92.6 457
05:40:49 6 995 3 3 0 93.3 451
05:43:46 6 995 5 6 SW 0 93.3 444
05:46:45 6 995 8 3 NW 0 93.2 448
05:49:47 6 995 12 2 O 0 93.5 454
05:52:45 6 995 17 4 O 0 93.4 462
05:55:46 6 995 24 3 NO 0 93.6 465
05:58:47 6 995 31 5 NO 0 93.6 462
06:01:46 6 995 39 2 NO 0 94.1 450
06:04:47 6 995 47 2 SW 0 94.3 436
06:07:49 6 995 56 3 NW 0 94.3 430
06:10:46 6 995 65 4 N 0 94.3 434
06:13:49 6 995 73 5 NO 0 94.6 431
06:16:44 6 995 83 1 S 0 94.7 439
06:19:47 6 995 92 4 NO 0 94.8 436
06:22:45 6 995 101 2 S 0 94.6 445
06:25:49 6 995 107 3 SO 0 94.9 449
06:28:45 6 995 112 4 S 0 95 445
06:31:47 6 995 115 0 O 0 95.2 445
06:34:48 6 995 123 0 NO 0 95.4 446
06:37:48 6 995 131 0 SO 0 95.6 431
06:40:48 6 995 136 0 N 0 95.7 422
06:43:48 6 995 137 0 SO 0 96.2 427
06:46:46 6 995 139 0 N 0 96.4 451
06:49:47 6 995 142 0 O 0 96.4 457
06:52:47 6 995 145 1 N 0 96.1 446
06:55:45 6 995 153 0 0 95.8 424
06:58:46 6 995 158 0 SO 0 95.6 403
07:01:47 6 995 160 1 NO 0 95.5 404
07:04:51 6 995 165 2 NO 0 95.6 406
07:07:48 6 995 172 6 NO 0 95.5 404
07:10:46 6 994 178 1 O 0 95.3 404
07:13:45 6 995 173 4 NO 0 95.1 403
07:16:46 6 995 179 3 N 0 94.7 404
07:19:48 6 995 179 2 SO 0 94.5 407
07:22:47 6 995 174 1 SO 0 94.9 404
07:25:47 6 995 174 4 NO 0 95.1 406
07:28:47 6 995 181 2 SO 0 94.8 438
07:31:48 6 994 188 1 O 0 94.9 436
07:34:47 6 995 192 4 S 0 94.9 427
07:37:47 6 995 195 5 NO 0 94.6 419
07:40:48 6 995 196 2 S 0 93.8 456
07:43:48 6 995 196 1 N 0 93 478
07:46:51 6 994 188 10 NW 0 92.8 480
07:49:46 6 995 192 4 O 0 93.7 480
07:52:47 6 995 195 2 NO 0 94.2 478
07:55:47 6 995 192 4 N 0 94.9 482
07:58:47 6 995 192 5 NO 0 95 486
08:01:48 6 995 191 6 0 94.8 480
08:04:48 6 995 191 2 NO 0 94.8 480
08:07:50 6 995 190 1 O 0 95 469
08:10:49 6 995 189 8 NO 0 95 474
08:13:48 6 994 190 3 S 0 95.3 479
08:16:46 6 995 195 1 NO 0 95.7 475
08:19:47 6 994 201 2 O 0 96 475
08:22:51 6 995 207 6 NW 0 95.7 475
08:25:45 6 995 202 7 N 0 95.9 481
08:28:48 6 995 192 4 O 0 95.4 479
08:31:46 6 995 194 5 N 0 95.4 473
08:34:45 6 995 199 6 O 0 95.4 462
08:37:48 6 995 198 6 N 0 95.7 463
08:40:46 6 995 201 5 0 95.9 467
08:43:50 6 995 208 5 N 0 96.1 472
08:46:49 6 995 209 4 NO 0 96.1 466
08:49:47 6 995 207 3 NO 0 96 454
08:52:48 6 995 203 4 NO 0 96 451
08:55:45 6 995 199 3 N 0 95.9 454
08:58:49 6 995 203 2 SO 0 95.3 462
09:01:48 6 995 206 2 NO 0 95.5 448
09:04:49 6 995 212 5 N 0 95.6 404
09:07:48 7 995 218 2 N 0 95.2 406
09:10:46 7 995 205 2 N 0 94.4 407
09:13:48 7 995 217 6 NO 0 94.1 407
09:16:45 7 995 206 4 O 0 94.1 415
09:19:47 6 995 203 3 O 0 93.6 419
09:22:46 6 995 211 4 N 0 93.7 416
09:25:45 6 995 218 2 N 0 94.4 415
09:28:46 6 995 213 4 NO 0 94.7 421
09:31:49 7 995 215 6 NW 0 94.2 436
09:34:48 7 995 221 4 SW 0 94.5 442
09:37:48 7 995 221 4 O 0 93.9 430
09:40:49 7 995 216 3 O 0 92.7 418
09:43:49 7 995 220 3 N 0 92.7 419
09:46:47 7 995 211 9 NW 0 92.5 422
09:49:46 7 995 218 8 W 0 91.6 427
09:52:48 7 995 215 10 N 0 92 425
09:55:47 7 995 218 6 NO 0 91.6 427
09:58:48 7 995 222 4 N 0 92.1 428
10:01:49 7 995 218 5 NW 0 92.2 436
10:04:46 8 995 215 5 N 0 92.2 434
10:07:46 8 995 212 6 O 0 92 436
10:10:48 7 995 215 3 NO 0 91.2 435
10:13:48 8 995 227 4 O 0 91.5 428
10:16:47 8 995 218 8 N 0 92 424
10:19:45 8 995 225 5 N 0 92.1 436
10:22:49 8 995 226 2 NW 0 90 442
10:25:45 9 994 227 4 0 89.5 445
10:28:32 7 995 221 6 N 0 82.5 436
10:31:48 8 995 225 4 NO 0 87.3 424
10:34:47 9 995 225 4 NO 0 88.6 427
10:37:48 9 995 222 4 NO 0 88 430
10:40:46 9 995 222 3 O 0 87 433
10:43:48 9 995 224 5 NO 0 87.5 427
10:46:47 9 995 220 8 NO 0 87.2 439
10:49:48 9 995 223 2 NO 0 87.1 436
10:52:48 9 994 222 5 NW 0 87.5 431
10:55:47 9 995 227 6 W 0 87.6 425
10:58:49 9 995 224 5 NW 0 87.8 428
11:01:45 9 995 222 4 N 0 87.1 430
11:04:47 9 995 227 3 NO 0 87 422
11:07:47 9 995 227 5 N 0 86.1 427
11:10:48 10 995 223 7 SW 0 85.4 430
11:13:50 10 995 218 7 NO 0 82.4 433
11:16:45 10 995 218 8 0 82.4 433
11:19:47 9 995 216 7 SW 0 83.1 428
11:22:48 9 995 223 4 NW 0 84.5 428
11:25:48 9 995 224 4 NW 0 85.4 424
11:28:50 9 995 224 7 N 0 85.8 430
11:31:47 10 995 224 6 SO 0 85 430
11:34:48 10 995 225 1 SW 0 84.7 422
11:37:46 10 995 225 5 O 0 84 424
11:40:49 10 995 225 4 NW 0 82.3 427
11:43:47 10 995 225 3 N 0 81.9 439
11:46:49 11 995 227 5 NW 0 82.1 444
11:49:50 11 994 226 7 W 0 81.9 449
11:52:46 10 995 226 8 NO 0 81.3 445
11:55:49 10 994 226 2 SO 0 82.5 451
11:58:49 10 995 227 3 NO 0 82.8 457
12:01:49 10 995 226 0 NO 0 82.3 462
12:04:49 11 995 226 0 N 0 82.5 474
12:07:49 11 994 225 1 S 0 82.9 460
12:10:49 11 994 225 6 S 0 79.6 454
12:13:47 11 995 227 5 NO 0 79.6 445
12:16:47 11 995 222 3 O 0 78.9 438
12:19:47 12 995 223 3 0 78.5 427
12:22:47 12 995 225 5 O 0 78.9 424
12:25:49 12 994 225 5 W 0 77.2 428
12:28:47 12 994 227 7 N 0 76.5 436
12:31:47 12 995 230 6 N 0 75.9 433
12:34:47 12 995 228 6 O 0 75.6 424
12:37:48 12 995 227 6 N 0 76 407
12:40:47 12 995 224 5 0 76.1 404
12:43:48 12 994 226 6 NO 0 76.2 406
12:46:50 12 994 230 3 SO 0 76.7 406
12:49:47 12 995 228 4 NW 0 76.1 416
12:52:49 12 994 229 1 SO 0 76.1 431
12:55:49 13 994 225 8 NO 0 75.8 444
12:58:47 13 994 229 7 N 0 75.4 442
13:01:47 13 994 229 6 O 0 74.2 439
13:04:44 13 994 222 3 0 74.1 439
13:07:48 13 994 223 4 N 0 73.6 436
13:10:47 12 994 223 5 NW 0 74.4 427
13:13:47 12 993 226 3 SW 0 75.5 407
13:16:48 13 994 228 9 N 0 74.7 406
13:19:46 13 993 231 8 S 0 74.5 410
13:22:49 13 995 231 5 SO 0 74.1 429
13:25:46 14 994 232 7 N 0 73.2 427
13:28:45 14 993 233 8 N 0 71.3 430
13:31:46 15 994 231 6 N 0 69.9 434
13:34:48 15 994 229 0 W 0 68.9 436
13:37:46 15 993 231 8 N 0 69 430
13:40:48 14 993 230 3 N 0 67.5 427
13:43:49 14 993 228 3 O 0 67.4 431
13:46:46 14 993 234 3 O 0 67.9 440
13:49:49 14 994 230 10 NO 0 67.8 433
13:52:45 15 993 231 5 S 0 66.9 421
13:55:48 15 993 223 8 SO 0 66.5 427
13:58:50 15 993 225 6 NW 0 65.1 434
14:01:47 15 993 217 5 O 0 65.5 433
14:04:48 15 993 222 4 NO 0 65.2 424
14:07:49 15 994 228 6 N 0 65.4 427
14:10:49 15 993 227 9 NO 0 64.1 421
14:13:46 14 994 228 6 SO 0 64 427
14:16:48 14 993 227 7 NO 0 64.2 416
14:19:47 14 993 229 11 N 0 65.1 419
14:22:48 15 993 234 4 N 0 65.5 415
14:25:46 15 993 235 5 SW 0 65.8 415
14:28:50 15 992 233 3 NO 0 63.8 410
14:31:48 15 992 228 6 N 0 62.7 471
14:34:48 15 993 232 4 N 0 62.1 478
14:37:46 16 993 232 7 S 0 62.3 498
14:40:49 16 992 231 3 SW 0 62.4 495
14:43:48 16 993 226 5 SO 0 61.9 483
14:46:46 16 993 230 4 0 62.8 462
14:49:48 16 992 229 4 O 0 62.5 456
14:52:46 16 992 220 9 N 0 61.8 459
14:55:50 15 992 211 8 N 0 61.7 468
14:58:49 15 992 206 8 NW 0 61.7 468
15:01:48 15 992 215 6 O 0 62 472
15:04:46 15 993 218 15 N 0 63.2 460
15:07:46 14 993 209 7 N 0 63.1 465
15:10:47 14 992 202 8 O 0 64.7 460
15:13:49 14 992 205 5 SO 0 65.4 468
15:16:47 14 993 208 11 O 0 66 468
15:19:47 14 992 217 7 NO 0 65.9 463
15:22:46 14 993 219 6 O 0 65 459
15:25:45 14 992 216 6 O 0 65.4 456
15:28:47 14 992 213 3 O 0 64.9 447
15:31:45 14 993 219 4 N 0 65 436
15:34:47 14 993 223 5 NO 0 65.1 433
15:37:47 14 992 223 7 SO 0 64.4 439
15:40:49 14 993 223 10 NW 0 64.4 448
15:43:46 14 993 218 7 NO 0 64.4 442
15:46:45 14 992 218 7 O 0 64.8 410
15:49:45 14 993 231 3 NW 0 64.8 404
15:52:48 15 992 229 12 O 0 65.1 404
15:55:50 15 992 226 3 NW 0 63.4 407
15:58:49 15 993 224 14 NO 0 64.3 407
16:01:47 14 993 216 7 O 0 63.8 407
16:04:47 14 992 205 5 NO 0 63.9 413
16:07:47 14 992 199 2 O 0 65 410
16:10:48 14 992 201 6 NO 0 65.9 422
16:13:47 14 992 206 6 S 0 66.4 422
16:16:48 14 993 215 5 NW 0 67 416
16:19:46 14 992 213 4 N 0 67.4 416
16:22:48 14 993 212 3 W 0 67.5 424
16:25:48 14 992 214 7 NO 0 67 430
16:28:51 14 992 217 7 SW 0 67.3 410
16:31:46 14 992 237 6 N 0 67.2 407
16:34:49 15 992 247 14 NO 0 66.1 406
16:37:47 15 991 247 13 O 0 63.2 404
16:40:46 16 993 242 4 O 0 62.3 406
16:43:46 16 992 246 10 N 0 61.3 403
16:46:47 15 993 236 8 W 0 61.2 406
16:49:47 16 992 245 6 NO 0 61.8 406
16:52:45 16 992 245 8 O 0 61.7 406
16:55:49 16 992 238 8 SO 0 61 406
16:58:47 15 992 236 4 NO 0 61.4 407
17:01:48 15 992 223 11 NO 0 62.2 403
17:04:47 15 993 221 13 N 0 62.5 406
17:07:46 15 992 214 14 O 0 62.9 404
17:10:49 14 992 204 8 SO 0 65.7 403
17:13:47 14 992 217 8 NO 0 65.8 407
17:16:47 14 992 219 7 N 0 66.4 406
17:19:49 14 993 226 8 O 0 66.6 407
17:22:50 14 992 235 10 O 0 66.2 406
17:25:48 14 992 233 7 SO 0 65.8 407
17:28:48 14 992 245 7 NO 0 65.8 404
17:31:47 15 992 243 7 O 0 65.7 407
17:34:46 15 992 235 5 NO 0 65.2 407
17:37:45 15 992 234 6 N 0 65.3 406
17:40:48 14 992 227 4 SO 0 65.9 404
17:43:47 14 992 210 4 NO 0 66.1 403
17:46:49 14 993 199 4 N 0 66.8 402
17:49:45 14 992 197 7 O 0 67.9 407
17:52:45 14 993 195 6 O 0 68.6 407
17:55:48 14 992 207 9 O 0 68.9 401
17:58:47 14 993 201 3 O 0 68.9 407
18:01:49 14 992 192 4 SO 0 69.4 404
18:04:50 14 992 189 6 SO 0 69.7 407
18:07:49 14 992 193 8 W 0 70.4 404
18:10:45 14 992 198 3 O 0 70.3 407
18:13:46 14 992 210 6 O 0 69.9 407
18:16:50 14 992 210 4 NO 0 69.2 406
18:19:48 14 992 211 3 N 0 68.9 404
18:22:48 14 993 218 7 N 0 68.6 407
18:25:49 14 992 219 7 NO 0 68.4 404
18:28:50 14 993 202 7 NO 0 68.5 405
18:31:49 14 992 196 3 NO 0 68.4 404
18:34:46 14 993 191 4 O 0 69.1 405
18:37:47 13 993 184 3 SO 0 69.7 404
18:40:47 13 992 177 5 S 0 70.5 407
18:43:45 13 993 192 5 N 0 71.1 404
18:46:49 13 993 195 3 NW 0 71.3 405
18:49:48 13 993 188 4 NO 0 71.8 407
18:52:50 13 993 189 3 SO 0 72.2 408
18:55:48 13 993 195 9 O 0 72.1 405
18:58:47 13 993 197 4 SO 0 72.4 404
19:01:49 13 992 197 6 N 0 72.1 407
19:04:49 13 994 199 4 NO 0 72.3 403
19:07:49 13 993 196 8 O 0 72.6 407
19:10:47 13 993 187 5 O 0 72.6 404
19:13:49 13 992 188 9 N 0 72.8 407
19:16:48 13 993 184 5 N 0 72.9 407
19:19:47 13 993 172 6 S 0 72.9 404
19:22:47 13 992 157 5 W 0 72.9 406
19:25:52 13 993 145 3 NO 0 73.3 407
19:28:46 12 994 138 3 NW 0 73.4 406
19:31:48 12 993 138 2 NO 0 73.5 404
19:34:48 12 993 136 11 NW 0 73.7 403
19:37:46 12 993 134 5 S 0 73.6 407
19:40:48 12 993 127 2 N 0 73.6 404
19:43:47 12 992 130 5 NO 0 73.9 404
19:46:49 12 993 134 2 NO 0 74.4 406
19:49:48 12 992 131 5 NO 0 74.6 404
19:52:46 12 994 125 4 S 0 74.8 407
19:55:47 12 993 121 4 NO 0 75 404
19:58:48 12 994 118 3 N 0 75.2 407
20:01:47 12 993 116 1 N 0 75.5 407
20:04:44 12 994 115 3 0 75.5 404
20:07:51 12 993 99 4 N 0 76 404
20:10:47 12 993 78 1 O 0 76.1 404
20:13:48 12 994 65 4 NO 0 76.3 407
20:16:49 12 994 53 4 NW 0 76.5 407
20:19:48 12 994 44 2 SO 0 76.5 404
20:22:48 12 994 39 1 N 0 76.3 409
20:25:47 12 994 34 2 NO 0 76.3 407
20:28:48 12 993 32 2 S 0 76.6 404
20:31:48 12 994 30 8 N 0 76.9 407
20:34:49 12 994 23 3 SO 0 76.9 404
20:37:45 12 993 17 9 N 0 77.1 406
20:40:46 12 994 10 2 N 0 77.1 406
20:43:46 12 994 5 0 S 0 77.3 406
20:46:48 12 994 3 2 O 0 77.4 407
20:49:51 12 994 0 4 NW 0 77.5 407
20:52:45 12 994 0 1 N 0 77.5 407
20:55:45 12 994 0 3 NO 0 77.6 407
20:58:43 12 993 0 1 0 77.6 407
21:01:47 12 994 0 2 O 0 77.7 404
21:04:47 12 993 0 2 O 0 77.9 404
21:07:44 12 994 0 2 N 0 77.9 406
21:10:46 12 994 0 4 NW 0 78.1 403
21:13:46 12 994 0 3 N 0 78.3 407
21:16:44 12 994 0 2 O 0 78.4 404
21:19:47 12 994 0 5 S 0 78.7 407
21:22:46 12 994 0 2 O 0 78.7 407
21:25:46 12 994 0 3 NO 0 78.8 404
21:28:45 12 994 0 4 N 0 78.8 407
21:31:46 12 994 0 1 NO 0 78.8 406
21:34:45 12 994 0 8 N 0 78.8 404
21:37:43 12 994 0 4 N 0 78.8 407
21:40:45 12 994 0 5 NO 0 78.8 406
21:43:43 12 994 0 6 S 0 79 404
21:46:45 11 994 0 5 NO 0 79 406
21:49:45 11 994 0 8 SO 0 78.9 406
21:52:47 12 994 0 12 S 0 78.8 401
21:55:45 12 994 0 3 SO 0 78.6 406
21:58:48 11 994 0 2 NO 0 78.6 407
22:01:47 11 994 0 5 NO 0 78.6 407
22:04:47 11 995 0 7 O 0 78.6 404
22:07:46 11 994 0 4 NO 0 78.6 403
22:10:47 11 993 0 3 S 0 78.6 407
22:13:46 11 994 0 4 0 78.6 404
22:16:46 11 994 0 3 NO 0 78.7 404
22:19:49 11 995 0 5 NO 0 78.8 407
22:22:45 11 994 0 5 N 0 78.8 407
22:25:48 11 994 0 4 NO 0 78.9 406
22:28:48 11 995 0 2 N 0 78.9 404
22:31:49 11 995 0 2 SW 0 78.9 407
22:34:46 11 995 0 5 S 0 78.8 407
22:37:46 11 995 0 5 NO 0 78.4 404
22:40:47 11 994 0 4 NO 0 78.3 407
22:43:45 11 994 0 2 O 0 78.2 404
22:46:45 11 995 0 1 O 0 78.4 406
22:49:46 11 994 0 4 N 0 78.5 404
22:52:47 11 995 0 2 NO 0 78.5 404
22:55:45 11 995 0 2 O 0 78.6 406
22:58:47 11 995 0 4 NO 0 78.7 406
23:01:47 11 994 0 7 NO 0 78.6 407
23:04:49 11 994 0 4 O 0 78.7 406
23:07:47 11 994 0 3 S 0 78.8 407
23:10:48 11 995 0 6 NO 0 79 405
23:13:45 11 995 0 1 O 0 79 407
23:16:46 11 995 0 4 SO 0 79.1 405
23:19:44 11 994 0 2 O 0 79.2 403
23:22:46 11 995 0 3 NO 0 79.3 404
23:25:45 11 995 0 1 N 0 79.5 404
23:28:48 11 995 0 4 NW 0 79.5 407
23:31:47 11 994 0 2 O 0 79.6 407
23:34:44 11 995 0 1 O 0 79.6 403
23:37:47 11 995 0 4 O 0 79.5 406
23:40:47 11 995 0 4 NW 0 79.5 407
23:43:47 11 994 0 1 N 0 79.6 404
23:46:46 11 995 0 2 N 0 79.5 403
23:49:47 11 994 0 4 SO 0 79.3 407
23:52:49 11 995 0 3 NW 0 78.9 404
23:55:46 11 995 0 3 O 0 78.5 406
23:58:47 11 995 0 1 NO 0 78.4 407

Letzte Änderung : 04-Jan-2022
Copyright Jens Köhler, Wolfsburg, Obere Dorfstraße 10d